GW1379 Weather Reports


time (UTC)temp
C
wind
direction
speed
KPH
gust
KPH
rain 1hr
cm
rain 24hr
cm
rain mn
cm
humidity
%
barometer
mb
20260906010530 17 296 12.9 22.5 0.00 0.03 0.00 65 1021.0
20260906010353 18 276 11.3 20.9 0.00 0.03 0.00 65 1020.8
20260906010054 17 273 11.3 19.3 0.00 0.03 0.00 64 1021.0
20260906005529 17 277 11.3 22.5 0.00 0.03 0.00 65 1021.1
20260906005350 18 286 9.7 20.9 0.00 0.03 0.00 64 1020.8
20260906005029 17 271 11.3 27.4 0.00 0.03 0.00 64 1021.1
20260906004848 18 258 11.3 27.4 0.00 0.03 0.00 64 1020.7
20260906004548 18 260 8.0 27.4 0.00 0.03 0.00 64 1021.0
20260906004346 18 289 11.3 27.4 0.00 0.03 0.00 65 1020.7
20260906004033 17 283 11.3 27.4 0.00 0.03 0.00 64 1020.9
20260906003528 18 269 8.0 14.5 0.00 0.03 0.00 65 1020.8
20260906003343 18 244 8.0 14.5 0.00 0.03 0.00 64 1020.6
20260906003054 18 280 8.0 17.7 0.00 0.03 0.00 63 1020.8
20260906002845 18 282 8.0 17.7 0.00 0.03 0.00 63 1020.5
20260906002529 18 261 4.8 17.7 0.00 0.03 0.00 62 1020.8
20260906002339 18 268 6.4 17.7 0.00 0.03 0.00 63 1020.4
20260906002029 18 224 6.4 19.3 0.00 0.03 0.00 63 1020.6
20260906001838 18 266 6.4 17.7 0.00 0.03 0.00 64 1020.3
20260906001554 18 286 8.0 19.3 0.00 0.03 0.00 63 1020.5
20260906001337 18 299 9.7 17.7 0.00 0.03 0.00 64 1020.2
20260906001028 18 269 11.3 19.3 0.00 0.03 0.00 64 1020.6
20260906000835 18 284 9.7 14.5 0.00 0.03 0.00 64 1020.4
20260906000529 18 316 8.0 14.5 0.00 0.03 0.00 62 1020.7
20260906000333 18 306 9.7 14.5 0.00 0.03 0.00 63 1020.5
20260906000053 18 247 8.0 14.5 0.00 0.03 0.00 62 1020.7
20260905235832 18 273 8.0 14.5 0.00 0.03 0.00 62 1020.5
20260905235530 18 259 8.0 16.1 0.00 0.03 0.00 62 1020.6
20260905235330 18 267 6.4 16.1 0.00 0.03 0.00 62 1020.4
20260905235028 18 290 8.0 17.7 0.00 0.03 0.00 62 1020.6
20260905234828 18 311 8.0 16.1 0.00 0.03 0.00 62 1020.4
20260905234547 18 271 6.4 17.7 0.00 0.03 0.00 61 1020.6
20260905234326 18 286 6.4 16.1 0.00 0.03 0.00 61 1020.3
20260905234030 18 266 4.8 17.7 0.00 0.03 0.00 61 1020.6
20260905233825 18 267 6.4 17.7 0.00 0.03 0.00 61 1020.4
20260905233529 18 258 8.0 17.7 0.00 0.03 0.00 61 1020.6
20260905233327 18 252 6.4 17.7 0.00 0.03 0.00 61 1020.3
20260905233056 18 273 6.4 14.5 0.00 0.03 0.00 61 1020.6
20260905232529 18 267 4.8 12.9 0.00 0.03 0.00 62 1020.5
20260905232029 18 257 4.8 16.1 0.00 0.03 0.00 62 1020.6
20260905231818 18 254 6.4 16.1 0.00 0.03 0.00 62 1020.3
20260905231552 18 278 6.4 16.1 0.00 0.03 0.00 62 1020.5
20260905231316 18 278 6.4 16.1 0.00 0.03 0.00 62 1020.2
20260905231028 18 272 8.0 16.1 0.00 0.03 0.00 61 1020.4
20260905230528 18 246 6.4 14.5 0.00 0.03 0.00 62 1020.3
20260905230313 18 290 8.0 14.5 0.00 0.03 0.00 62 1020.3
20260905230056 18 259 6.4 14.5 0.00 0.03 0.00 61 1020.5
20260905225812 18 287 8.0 14.5 0.00 0.03 0.00 62 1020.3
20260905225528 18 272 8.0 16.1 0.00 0.03 0.00 61 1020.4
20260905225310 18 267 6.4 16.1 0.00 0.03 0.00 61 1020.2
20260905225028 18 240 8.0 17.7 0.00 0.03 0.00 60 1020.5
20260905224809 18 272 8.0 16.1 0.00 0.03 0.00 61 1020.1
20260905224605 18 282 9.7 17.7 0.00 0.03 0.00 61 1020.3
20260905224307 18 266 11.3 16.1 0.00 0.03 0.00 61 1020.0
20260905224028 18 242 9.7 19.3 0.00 0.03 0.00 61 1020.3
20260905223805 18 296 8.0 17.7 0.00 0.03 0.00 61 1020.0
20260905223527 18 282 9.7 19.3 0.00 0.03 0.00 61 1020.3
20260905223308 18 279 11.3 17.7 0.00 0.03 0.00 61 1020.1
20260905223050 18 291 8.0 20.9 0.00 0.03 0.00 61 1020.3
20260905222802 18 300 9.7 20.9 0.00 0.03 0.00 62 1020.1
20260905222529 18 265 6.4 22.5 0.00 0.03 0.00 61 1020.4
20260905222300 18 271 6.4 20.9 0.00 0.03 0.00 62 1020.0
20260905222028 18 271 9.7 22.5 0.00 0.03 0.00 61 1020.3
20260905221758 18 307 9.7 20.9 0.00 0.03 0.00 62 1020.1
20260905221557 18 247 11.3 20.9 0.00 0.03 0.00 61 1020.4
20260905221256 18 252 11.3 17.7 0.00 0.03 0.00 62 1020.2
20260905221033 18 273 6.4 22.5 0.00 0.03 0.00 61 1020.4
20260905220755 18 247 9.7 22.5 0.00 0.03 0.00 62 1020.2
20260905220529 18 279 11.3 22.5 0.00 0.03 0.00 61 1020.4
20260905220248 18 288 12.9 22.5 0.00 0.03 0.00 61 1020.1
20260905220107 18 285 9.7 20.9 0.00 0.03 0.00 61 1020.4
20260905215747 18 271 11.3 19.3 0.00 0.03 0.03 61 1020.1
20260905215528 18 268 9.7 20.9 0.00 0.03 0.03 61 1020.3
20260905215245 18 246 9.7 19.3 0.00 0.03 0.03 61 1020.1
20260905215029 18 281 8.0 19.3 0.00 0.03 0.03 61 1020.3
20260905214743 18 203 11.3 19.3 0.00 0.03 0.03 61 1020.0
20260905214550 18 239 6.4 19.3 0.00 0.03 0.03 61 1020.2
20260905214241 18 277 8.0 17.7 0.00 0.03 0.03 61 1019.9
20260905214030 18 264 8.0 19.3 0.00 0.03 0.03 60 1020.2
20260905213740 18 261 8.0 17.7 0.00 0.03 0.03 61 1019.9
20260905213531 18 255 6.4 17.7 0.00 0.03 0.03 60 1020.1
20260905213238 18 250 6.4 17.7 0.00 0.03 0.03 61 1019.9
20260905213052 18 264 4.8 17.7 0.00 0.03 0.03 60 1020.2
20260905212740 18 280 4.8 17.7 0.00 0.03 0.03 61 1019.9
20260905212532 18 257 8.0 17.7 0.00 0.03 0.03 61 1020.1
20260905212235 18 251 6.4 14.5 0.00 0.03 0.03 61 1019.9
20260905212029 18 283 4.8 14.5 0.00 0.03 0.03 61 1020.1
20260905211732 18 252 4.8 12.9 0.00 0.03 0.03 62 1019.9
20260905211603 18 250 6.4 12.9 0.00 0.03 0.03 61 1020.0
20260905211233 18 250 4.8 11.3 0.00 0.03 0.03 61 1019.7
20260905211028 18 232 3.2 9.7 0.00 0.03 0.03 60 1019.9
20260905210724 18 229 4.8 8.0 0.00 0.03 0.03 60 1019.7
20260905210529 18 212 3.2 6.4 0.00 0.03 0.03 59 1019.9
20260905210222 19 220 3.2 6.4 0.00 0.03 0.03 59 1019.6
20260905210104 18 229 3.2 8.0 0.00 0.03 0.03 58 1019.9
20260905205721 19 209 3.2 8.0 0.00 0.03 0.03 58 1019.5
20260905205528 19 225 3.2 8.0 0.00 0.03 0.03 57 1019.8
20260905205220 20 230 3.2 8.0 0.00 0.03 0.03 57 1019.5
20260905205029 19 192 4.8 11.3 0.00 0.03 0.03 57 1019.8
20260905204718 20 234 3.2 9.7 0.00 0.03 0.03 57 1019.5
20260905204557 19 286 3.2 14.5 0.00 0.03 0.03 57 1019.8
20260905204216 20 222 4.8 14.5 0.00 0.03 0.03 57 1019.5
20260905204029 20 251 4.8 14.5 0.00 0.03 0.03 57 1019.8
20260905203714 20 273 6.4 14.5 0.00 0.03 0.03 58 1019.5
20260905203529 20 276 6.4 19.3 0.00 0.03 0.03 57 1019.8
20260905203214 20 259 8.0 19.3 0.00 0.03 0.03 58 1019.3
20260905203111 20 291 6.4 19.3 0.00 0.03 0.03 58 1019.7
20260905202711 20 289 9.7 19.3 0.00 0.03 0.03 58 1019.4
20260905202531 20 271 9.7 22.5 0.00 0.03 0.03 58 1019.7
20260905202213 20 287 11.3 22.5 0.00 0.03 0.03 60 1019.4
20260905202028 20 300 9.7 22.5 0.00 0.03 0.03 60 1019.6
20260905201708 20 280 11.3 22.5 0.00 0.03 0.03 61 1019.3
20260905201601 19 281 8.0 22.5 0.00 0.03 0.03 60 1019.6
20260905201207 20 284 8.0 20.9 0.00 0.03 0.03 60 1019.3
20260905201030 19 252 6.4 22.5 0.00 0.03 0.03 58 1019.5
20260905200705 20 275 9.7 20.9 0.00 0.03 0.03 58 1019.2
20260905200531 20 273 9.7 22.5 0.00 0.03 0.03 57 1019.4
20260905200204 20 281 8.0 20.9 0.00 0.03 0.03 57 1019.2
20260905200058 20 257 11.3 22.5 0.00 0.03 0.03 56 1019.3
20260905195701 20 292 9.7 20.9 0.00 0.03 0.03 56 1019.1
20260905195529 20 296 8.0 20.9 0.00 0.03 0.03 55 1019.3
20260905195031 20 288 8.0 22.5 0.00 0.03 0.03 56 1019.3
20260905194658 20 292 12.9 22.5 0.00 0.03 0.03 57 1019.1
20260905194550 20 278 12.9 22.5 0.00 0.03 0.03 57 1019.3
20260905194029 20 273 9.7 24.1 0.00 0.03 0.03 57 1019.1
20260905193655 20 275 12.9 24.1 0.00 0.03 0.03 57 1019.0
20260905193528 20 299 11.3 24.1 0.00 0.03 0.03 56 1019.2
20260905193049 20 277 12.9 22.5 0.00 0.03 0.03 56 1019.2
20260905192652 20 275 14.5 22.5 0.00 0.03 0.03 56 1018.8
20260905192529 20 269 11.3 20.9 0.00 0.03 0.03 55 1019.1
20260905192028 20 263 11.3 20.9 0.00 0.03 0.03 54 1019.0
20260905191649 20 294 11.3 24.1 0.00 0.03 0.03 55 1018.8
20260905191557 20 268 11.3 27.4 0.00 0.03 0.03 54 1019.1
20260905191029 20 292 14.5 27.4 0.00 0.03 0.03 54 1019.1
20260905190645 20 289 14.5 24.1 0.00 0.03 0.03 55 1018.8
20260905190529 20 265 12.9 25.7 0.00 0.03 0.03 55 1019.0
20260905190144 20 273 12.9 22.5 0.00 0.03 0.03 56 1018.8
20260905190058 20 242 12.9 22.5 0.00 0.03 0.03 56 1018.9
20260905185643 20 252 11.3 22.5 0.00 0.03 0.03 57 1018.7
20260905185529 20 256 9.7 22.5 0.00 0.03 0.03 56 1019.0
20260905185141 20 274 9.7 20.9 0.00 0.03 0.03 55 1018.7
20260905185029 20 286 9.7 20.9 0.00 0.03 0.03 55 1018.9
20260905184639 20 311 8.0 16.1 0.00 0.03 0.03 55 1018.6
20260905184600 20 288 8.0 17.7 0.00 0.03 0.03 55 1018.8
20260905184137 20 249 8.0 16.1 0.00 0.03 0.03 55 1018.5
20260905184029 20 248 8.0 17.7 0.00 0.03 0.03 54 1018.7
20260905183635 21 244 8.0 16.1 0.00 0.03 0.03 54 1018.4
20260905183528 20 250 6.4 17.7 0.00 0.03 0.03 54 1018.7
20260905183134 21 257 6.4 17.7 0.00 0.03 0.03 54 1018.5
20260905183057 20 242 4.8 17.7 0.00 0.03 0.03 54 1018.7
20260905182633 21 238 6.4 17.7 0.00 0.03 0.03 54 1018.4
20260905182528 20 284 8.0 19.3 0.00 0.03 0.03 53 1018.6
20260905182134 21 245 8.0 19.3 0.00 0.03 0.03 54 1018.4
20260905182029 21 274 8.0 19.3 0.00 0.03 0.03 53 1018.6
20260905181629 21 261 9.7 19.3 0.00 0.03 0.03 53 1018.4
20260905181610 21 225 8.0 19.3 0.00 0.03 0.03 53 1018.6
20260905181128 21 248 9.7 20.9 0.00 0.03 0.03 52 1018.3
20260905181026 21 261 9.7 20.9 0.00 0.03 0.03 52 1018.5
20260905180626 21 283 6.4 20.9 0.00 0.03 0.03 52 1018.2
20260905180526 21 247 8.0 20.9 0.00 0.03 0.03 51 1018.5
20260905180055 21 291 9.7 22.5 0.00 0.03 0.03 51 1018.5
20260905175623 21 261 12.9 22.5 0.00 0.03 0.03 51 1018.2
20260905175529 21 264 11.3 25.7 0.00 0.03 0.03 51 1018.4
20260905175121 21 287 11.3 25.7 0.00 0.03 0.03 51 1018.2
20260905175030 21 285 11.3 25.7 0.00 0.03 0.03 50 1018.3
20260905174554 21 302 11.3 24.1 0.00 0.03 0.03 50 1018.2
20260905174118 21 277 14.5 24.1 0.00 0.03 0.03 50 1017.9
20260905174030 21 284 11.3 24.1 0.00 0.03 0.03 49 1018.2
20260905173529 21 242 8.0 25.7 0.00 0.03 0.03 49 1018.1
20260905173115 22 259 12.9 25.7 0.00 0.03 0.03 49 1017.9
20260905173049 22 248 9.7 25.7 0.00 0.03 0.03 48 1018.0
20260905172614 22 256 14.5 25.7 0.00 0.03 0.03 49 1017.7
20260905172528 22 237 9.7 25.7 0.00 0.03 0.03 48 1018.0
20260905172115 22 244 12.9 25.7 0.00 0.03 0.03 48 1017.6
20260905172029 22 244 14.5 25.7 0.00 0.03 0.03 48 1017.9
20260905171548 22 258 12.9 27.4 0.00 0.03 0.03 47 1017.8
20260905171109 22 254 11.3 27.4 0.00 0.03 0.03 47 1017.4
20260905171032 22 240 11.3 32.2 0.00 0.03 0.03 47 1017.7
20260905170607 22 246 12.9 24.1 0.00 0.03 0.03 47 1017.4
20260905170528 22 290 12.9 32.2 0.00 0.03 0.03 46 1017.7
20260905170105 22 284 14.5 25.7 0.00 0.03 0.03 47 1017.3
20260905170101 22 278 11.3 25.7 0.00 0.03 0.03 46 1017.6
20260905165604 23 280 14.5 25.7 0.00 0.03 0.03 46 1017.2
20260905165531 22 286 14.5 25.7 0.00 0.03 0.03 45 1017.6
20260905165102 23 238 12.9 20.9 0.00 0.03 0.03 46 1017.3
20260905165030 22 254 11.3 22.5 0.00 0.03 0.03 45 1017.5
20260905164600 23 235 12.9 22.5 0.00 0.03 0.03 46 1017.2
20260905164555 23 246 11.3 22.5 0.00 0.03 0.03 45 1017.5
20260905164059 23 190 12.9 22.5 0.00 0.03 0.03 46 1017.2
20260905164029 23 254 11.3 22.5 0.00 0.03 0.03 46 1017.5
20260905163557 23 258 9.7 19.3 0.00 0.03 0.03 47 1017.2
20260905163527 23 255 8.0 19.3 0.00 0.03 0.03 46 1017.5
20260905163056 23 229 9.7 19.3 0.00 0.03 0.03 49 1017.1
20260905163051 23 304 9.7 19.3 0.00 0.03 0.03 49 1017.4
20260905162554 23 261 4.8 9.7 0.00 0.03 0.03 55 1017.1
20260905162529 23 292 4.8 11.3 0.00 0.03 0.03 55 1017.4
20260905162052 23 271 4.8 11.3 0.00 0.03 0.03 56 1017.1
20260905162028 23 246 4.8 11.3 0.00 0.03 0.03 55 1017.4
20260905161551 23 226 4.8 11.3 0.00 0.03 0.03 57 1017.1
20260905161547 22 229 4.8 12.9 0.00 0.03 0.03 56 1017.4
20260905161049 23 180 4.8 12.9 0.00 0.03 0.03 57 1017.1
20260905161028 22 232 3.2 12.9 0.00 0.03 0.03 56 1017.4
20260905160547 23 199 6.4 12.9 0.00 0.03 0.03 56 1017.0
20260905160530 22 223 6.4 12.9 0.00 0.03 0.03 55 1017.4
20260905160130 22 238 4.8 11.3 0.00 0.03 0.03 55 1017.4
20260905160046 23 232 6.4 11.3 0.00 0.03 0.03 55 1017.0
20260905155545 23 224 6.4 11.3 0.00 0.03 0.03 55 1017.0
20260905155528 23 198 4.8 11.3 0.00 0.03 0.03 55 1017.4
20260905155042 23 226 4.8 11.3 0.00 0.03 0.03 56 1017.0
20260905155028 23 221 3.2 11.3 0.00 0.03 0.03 55 1017.3
20260905154553 23 246 4.8 11.3 0.00 0.03 0.03 56 1017.3
20260905154541 23 251 6.4 11.3 0.00 0.03 0.03 56 1017.0
20260905154040 23 252 6.4 11.3 0.00 0.03 0.03 57 1017.1
20260905154029 23 262 4.8 11.3 0.00 0.03 0.03 56 1017.4
20260905153538 23 182 4.8 11.3 0.00 0.03 0.03 56 1016.9
20260905153528 23 212 3.2 8.0 0.00 0.03 0.03 56 1017.3
20260905153102 23 244 3.2 12.9 0.00 0.03 0.03 56 1017.3
20260905153040 23 246 4.8 11.3 0.00 0.03 0.03 56 1016.9
20260905152534 23 219 4.8 12.9 0.00 0.03 0.03 55 1017.0
20260905152530 23 225 4.8 12.9 0.00 0.03 0.03 55 1017.4
20260905152033 23 259 6.4 12.9 0.00 0.03 0.03 54 1017.0
20260905152029 23 259 6.4 12.9 0.00 0.03 0.03 53 1017.3
20260905151604 23 210 4.8 14.5 0.00 0.03 0.03 53 1017.3
20260905151531 23 210 6.4 12.9 0.00 0.03 0.03 54 1016.9
20260905151030 23 254 4.8 14.5 0.00 0.03 0.03 54 1017.0
20260905151027 23 261 4.8 16.1 0.00 0.03 0.03 53 1017.3
20260905150530 23 222 6.4 16.1 0.00 0.03 0.03 53 1017.4
20260905150055 23 240 3.2 17.7 0.00 0.03 0.03 53 1017.3
20260905145530 23 266 6.4 17.7 0.00 0.03 0.03 52 1017.3
20260905145525 23 275 6.4 17.7 0.00 0.03 0.03 53 1017.0
20260905145030 23 261 9.7 17.7 0.00 0.03 0.03 51 1017.4
20260905145022 24 266 11.3 17.7 0.00 0.03 0.03 52 1017.1
20260905144553 24 306 8.0 17.7 0.00 0.03 0.03 52 1017.5
20260905144522 24 244 8.0 16.1 0.00 0.03 0.03 52 1017.1
20260905144031 24 264 9.7 20.9 0.00 0.03 0.03 51 1017.4
20260905144014 25 271 9.7 19.3 0.00 0.03 0.03 51 1017.0
20260905143531 25 240 8.0 20.9 0.00 0.03 0.03 51 1017.4
20260905143514 25 286 9.7 20.9 0.00 0.03 0.03 52 1017.0
20260905143050 25 227 9.7 22.5 0.00 0.03 0.03 50 1017.4
20260905143011 25 260 9.7 22.5 0.00 0.03 0.03 50 1017.1
20260905142530 25 296 8.0 22.5 0.00 0.03 0.03 52 1017.4
20260905142513 25 289 8.0 22.5 0.00 0.03 0.03 52 1017.0
20260905142028 25 267 12.9 19.3 0.00 0.03 0.03 53 1017.4
20260905142008 25 300 14.5 19.3 0.00 0.03 0.03 53 1017.0
20260905141557 24 259 8.0 16.1 0.00 0.03 0.03 55 1017.3
20260905141027 23 235 6.4 16.1 0.00 0.03 0.03 59 1017.4
20260905141005 23 277 4.8 16.1 0.00 0.03 0.03 57 1017.1
20260905140532 23 297 6.4 16.1 0.00 0.03 0.03 56 1017.5
20260905140053 22 306 6.4 12.9 0.00 0.03 0.03 58 1017.4
20260905140002 23 286 6.4 12.9 0.00 0.03 0.03 59 1017.1
20260905135528 22 279 6.4 19.3 0.00 0.03 0.03 62 1017.4
20260905135500 23 294 6.4 14.5 0.00 0.03 0.03 63 1017.1
20260905135028 22 219 6.4 19.3 0.00 0.03 0.03 59 1017.4
20260905134959 23 241 8.0 16.1 0.00 0.03 0.03 60 1017.1
20260905134556 23 230 9.7 19.3 0.00 0.03 0.03 58 1017.5
20260905134029 23 273 9.7 19.3 0.00 0.03 0.03 60 1017.6
20260905133955 23 273 9.7 19.3 0.00 0.03 0.03 61 1017.3
20260905133529 23 254 9.7 20.9 0.00 0.03 0.03 61 1017.6
20260905133048 22 285 12.9 22.5 0.03 0.03 0.03 61 1017.7
20260905132532 22 178 8.0 22.5 0.03 0.03 0.03 65 1017.8
20260905132455 22 276 6.4 22.5 0.03 0.03 0.03 66 1017.4
20260905132029 21 229 8.0 19.3 0.03 0.03 0.03 68 1017.8
20260905132002 22 242 9.7 17.7 0.03 0.03 0.03 69 1017.5
20260905131548 21 305 11.3 19.3 0.03 0.03 0.03 72 1017.8
20260905131447 21 314 11.3 17.7 0.03 0.03 0.03 71 1017.5
20260905131028 20 282 6.4 19.3 0.03 0.03 0.03 71 1017.8
20260905130946 21 287 6.4 19.3 0.03 0.03 0.03 70 1017.4
20260905130528 20 309 9.7 20.9 0.03 0.03 0.03 70 1018.0
20260905130054 20 296 11.3 22.5 0.03 0.03 0.03 71 1017.9
20260905125943 20 273 14.5 22.5 0.03 0.03 0.03 72 1017.6
20260905125529 20 285 11.3 25.7 0.03 0.03 0.03 73 1017.8
20260905125441 20 302 11.3 24.1 0.03 0.03 0.03 74 1017.5
20260905125028 20 255 8.0 27.4 0.03 0.03 0.03 74 1017.6
20260905124940 20 276 8.0 27.4 0.03 0.03 0.03 73 1017.2
20260905124555 21 277 16.1 27.4 0.03 0.03 0.03 69 1017.7
20260905124438 21 294 17.7 27.4 0.03 0.03 0.03 69 1017.4
20260905124034 22 269 12.9 29.0 0.03 0.03 0.03 68 1017.9
20260905123529 22 271 16.1 29.0 0.00 0.00 0.00 63 1017.5
20260905123434 23 284 16.1 29.0 0.00 0.00 0.00 62 1017.2
20260905123049 24 294 14.5 30.6 0.00 0.00 0.00 58 1017.5
20260905122933 25 285 14.5 30.6 0.00 0.00 0.00 57 1017.1
20260905122530 25 299 14.5 30.6 0.00 0.00 0.00 53 1017.6
20260905122436 26 254 16.1 30.6 0.00 0.00 0.00 54 1017.2
20260905122029 26 279 11.3 20.9 0.00 0.00 0.00 52 1017.5
20260905121943 26 280 11.3 19.3 0.00 0.00 0.00 50 1017.1
20260905121556 26 286 11.3 20.9 0.00 0.00 0.00 46 1017.3
20260905121428 27 246 12.9 17.7 0.00 0.00 0.00 48 1017.1
20260905121036 27 275 8.0 14.5 0.00 0.00 0.00 51 1017.4
20260905120927 27 296 8.0 14.5 0.00 0.00 0.00 51 1017.1
20260905120530 27 295 8.0 14.5 0.00 0.00 0.00 51 1017.3
20260905120108 27 299 6.4 12.9 0.00 0.00 0.00 48 1017.3
20260905115923 27 329 6.4 12.9 0.00 0.00 0.00 50 1016.9
20260905115529 27 278 4.8 11.3 0.00 0.00 0.00 49 1017.1
20260905115422 27 284 4.8 9.7 0.00 0.00 0.00 51 1016.8
20260905115030 27 305 4.8 11.3 0.00 0.00 0.00 50 1017.1
20260905114921 27 304 3.2 11.3 0.00 0.00 0.00 51 1016.8
20260905114601 27 281 4.8 12.9 0.00 0.00 0.00 51 1017.1
20260905114419 28 295 4.8 12.9 0.00 0.00 0.00 51 1016.8
20260905114029 27 315 6.4 12.9 0.00 0.00 0.00 49 1017.2
20260905113918 28 283 8.0 12.9 0.00 0.00 0.00 50 1016.9
20260905113529 27 227 4.8 12.9 0.00 0.00 0.00 48 1017.1
20260905113419 28 304 6.4 12.9 0.00 0.00 0.00 48 1016.7
20260905113056 28 321 4.8 12.9 0.00 0.00 0.00 51 1017.0
20260905112916 28 344 6.4 12.9 0.00 0.00 0.00 47 1016.7
20260905112530 28 0 3.2 9.7 0.00 0.00 0.00 46 1016.9
20260905112412 28 277 4.8 8.0 0.00 0.00 0.00 48 1016.6
20260905112029 28 282 3.2 9.7 0.00 0.00 0.00 45 1016.9
20260905111609 29 223 0.0 11.3 0.00 0.00 0.00 46 1017.0
20260905111409 29 288 0.0 11.3 0.00 0.00 0.00 48 1016.7
20260905111030 29 348 3.2 14.5 0.00 0.00 0.00 44 1017.1
20260905110908 29 14 4.8 12.9 0.00 0.00 0.00 48 1016.7
20260905110533 28 76 1.6 14.5 0.00 0.00 0.00 51 1017.1
20260905110406 28 83 4.8 12.9 0.00 0.00 0.00 51 1016.9
20260905110057 27 30 4.8 14.5 0.00 0.00 0.00 50 1017.2
20260905105908 27 46 4.8 12.9 0.00 0.00 0.00 51 1017.0
20260905105530 27 336 4.8 12.9 0.00 0.00 0.00 55 1017.4
20260905105403 27 24 6.4 12.9 0.00 0.00 0.00 57 1017.1
20260905105030 26 40 4.8 14.5 0.00 0.00 0.00 54 1017.4
20260905104901 26 355 3.2 14.5 0.00 0.00 0.00 57 1017.0
20260905104548 25 57 4.8 14.5 0.00 0.00 0.00 58 1017.4
20260905104359 25 332 6.4 14.5 0.00 0.00 0.00 58 1017.0
20260905104030 25 13 6.4 14.5 0.00 0.00 0.00 57 1017.3
20260905103858 25 49 6.4 14.5 0.00 0.00 0.00 58 1017.0
20260905103530 25 51 3.2 14.5 0.00 0.00 0.00 58 1017.5
20260905103357 25 343 4.8 14.5 0.00 0.00 0.00 60 1017.2
20260905103058 25 9 4.8 14.5 0.00 0.00 0.00 58 1017.6
20260905102854 25 5 6.4 14.5 0.00 0.00 0.00 59 1017.2
20260905102526 24 23 8.0 14.5 0.00 0.00 0.00 58 1017.4
20260905102353 25 352 6.4 14.5 0.00 0.00 0.00 59 1017.1
20260905102030 23 355 6.4 14.5 0.00 0.00 0.00 60 1017.5
20260905101852 24 28 6.4 14.5 0.00 0.00 0.00 60 1017.2
20260905101554 23 19 4.8 16.1 0.00 0.00 0.00 61 1017.5
20260905101350 23 48 4.8 14.5 0.00 0.00 0.00 62 1017.3
20260905101029 23 5 4.8 16.1 0.00 0.00 0.00 62 1017.8
20260905100848 23 9 6.4 14.5 0.00 0.00 0.00 62 1017.6
20260905100530 23 11 6.4 14.5 0.00 0.00 0.00 61 1018.0
20260905100350 23 0 6.4 12.9 0.00 0.00 0.00 61 1017.9
20260905100055 23 26 4.8 14.5 0.00 0.00 0.00 62 1018.2
20260905095846 23 40 4.8 14.5 0.00 0.00 0.00 62 1017.9
20260905095529 23 352 4.8 17.7 0.00 0.00 0.00 63 1018.1
20260905095344 23 65 4.8 16.1 0.00 0.00 0.00 63 1017.6
20260905095029 23 312 6.4 17.7 0.00 0.00 0.00 61 1017.9
20260905094551 23 36 11.3 17.7 0.00 0.00 0.00 63 1017.9
20260905094340 23 0 6.4 17.7 0.00 0.00 0.00 63 1017.5
20260905094029 23 21 3.2 14.5 0.00 0.00 0.00 62 1017.8
20260905093838 23 48 3.2 14.5 0.00 0.00 0.00 62 1017.4
20260905093533 23 11 6.4 17.7 0.00 0.00 0.00 62 1017.6
20260905093336 23 341 8.0 16.1 0.00 0.00 0.00 62 1017.2
20260905093059 23 5 8.0 17.7 0.00 0.00 0.00 61 1017.4
20260905092529 23 28 6.4 17.7 0.00 0.00 0.00 63 1017.4
20260905092030 23 314 4.8 16.1 0.00 0.00 0.00 62 1017.3
20260905091619 24 355 8.0 16.1 0.00 0.00 0.00 60 1017.3
20260905091330 25 318 8.0 16.1 0.00 0.00 0.00 58 1017.0
20260905091033 25 338 4.8 20.9 0.00 0.00 0.00 55 1017.4
20260905090828 25 288 9.7 19.3 0.00 0.00 0.00 56 1017.0
20260905090530 25 337 11.3 20.9 0.00 0.00 0.00 53 1017.2
20260905090331 25 345 11.3 19.3 0.00 0.00 0.00 53 1016.9
20260905090113 25 312 8.0 17.7 0.00 0.00 0.00 54 1017.2
20260905085531 26 331 3.2 17.7 0.00 0.00 0.00 51 1016.7
20260905085031 26 22 9.7 17.7 0.00 0.00 0.00 50 1016.7
20260905084822 26 344 8.0 17.7 0.00 0.00 0.00 52 1016.3
20260905084559 26 325 8.0 17.7 0.00 0.00 0.00 51 1016.4
20260905084321 27 324 6.4 17.7 0.00 0.00 0.00 51 1016.1
20260905084030 26 325 8.0 22.5 0.00 0.00 0.00 52 1016.2
20260905083819 27 330 8.0 22.5 0.00 0.00 0.00 52 1015.7
20260905083531 26 277 9.7 22.5 0.00 0.00 0.00 52 1016.0
20260905083317 27 321 12.9 22.5 0.00 0.00 0.00 51 1015.7
20260905083058 26 319 14.5 22.5 0.00 0.00 0.00 51 1016.0
20260905082531 26 309 11.3 20.9 0.00 0.00 0.00 53 1015.7
20260905082314 27 321 12.9 20.9 0.00 0.00 0.00 53 1015.5
20260905082030 26 284 14.5 20.9 0.00 0.00 0.00 52 1015.9
20260905081814 27 281 12.9 20.9 0.00 0.00 0.00 53 1015.7
20260905081553 26 269 9.7 17.7 0.00 0.00 0.00 51 1015.7
20260905081311 27 292 9.7 17.7 0.00 0.00 0.00 52 1015.2
20260905081030 26 274 9.7 17.7 0.00 0.00 0.00 52 1015.4
20260905080809 26 288 8.0 17.7 0.00 0.00 0.00 54 1015.0
20260905080530 26 272 9.7 17.7 0.00 0.00 0.00 53 1015.3
20260905080312 26 278 9.7 16.1 0.00 0.00 0.00 54 1015.0
20260905080056 26 312 6.4 16.1 0.00 0.00 0.00 52 1015.1
20260905075806 26 283 6.4 16.1 0.00 0.00 0.00 53 1014.6
20260905075530 26 252 4.8 16.1 0.00 0.00 0.00 51 1014.9
20260905075306 26 270 11.3 16.1 0.00 0.00 0.00 53 1014.6
20260905075029 26 284 8.0 19.3 0.00 0.00 0.00 51 1014.8
20260905074803 26 269 8.0 19.3 0.00 0.00 0.00 52 1014.5
20260905074548 26 302 6.4 19.3 0.00 0.00 0.00 51 1014.6
20260905074302 26 225 8.0 19.3 0.00 0.00 0.00 51 1014.3
20260905074033 26 250 9.7 16.1 0.00 0.00 0.00 52 1014.5
20260905073800 26 279 9.7 16.1 0.00 0.00 0.00 52 1014.3
20260905073530 25 270 6.4 16.1 0.00 0.00 0.00 53 1014.6
20260905073259 25 268 6.4 14.5 0.00 0.00 0.00 54 1014.2
20260905073101 25 284 6.4 17.7 0.00 0.00 0.00 53 1014.4
20260905072757 25 257 8.0 19.3 0.00 0.00 0.00 54 1014.1
20260905072529 25 264 8.0 20.9 0.00 0.00 0.00 52 1014.3
20260905072255 25 257 11.3 19.3 0.00 0.00 0.00 53 1014.1
20260905072031 25 244 11.3 20.9 0.00 0.00 0.00 52 1014.3
20260905071754 25 238 11.3 16.1 0.00 0.00 0.00 54 1013.9
20260905071554 24 263 6.4 16.1 0.00 0.00 0.00 53 1014.2
20260905071252 24 189 6.4 17.7 0.00 0.00 0.00 55 1014.0
20260905071032 24 229 6.4 17.7 0.00 0.00 0.00 54 1014.1
20260905070751 24 246 8.0 17.7 0.00 0.00 0.00 55 1013.8
20260905070529 23 193 8.0 17.7 0.00 0.00 0.00 54 1014.1
20260905070253 23 184 8.0 16.1 0.00 0.00 0.00 55 1013.8
20260905070058 23 206 6.4 14.5 0.00 0.00 0.00 55 1013.9
20260905065533 23 232 8.0 14.5 0.00 0.00 0.00 55 1013.9
20260905065246 23 225 8.0 14.5 0.00 0.00 0.00 56 1013.7
20260905065029 23 217 9.7 14.5 0.00 0.00 0.00 56 1014.0
20260905064744 23 213 8.0 14.5 0.00 0.00 0.00 56 1013.8
20260905064546 22 228 6.4 14.5 0.00 0.00 0.00 57 1014.0
20260905064243 22 198 4.8 14.5 0.00 0.00 0.00 59 1013.8
20260905064030 22 172 6.4 14.5 0.00 0.00 0.00 58 1014.0
20260905063741 22 180 8.0 12.9 0.00 0.00 0.00 59 1013.7
20260905063526 21 226 4.8 14.5 0.00 0.00 0.00 59 1014.1
20260905063240 22 197 8.0 14.5 0.00 0.00 0.00 59 1013.9
20260905063058 21 212 6.4 16.1 0.00 0.00 0.00 59 1014.1
20260905062738 21 221 6.4 16.1 0.00 0.00 0.00 60 1013.6
20260905062528 21 194 6.4 17.7 0.00 0.00 0.00 59 1014.0
20260905062236 21 186 6.4 17.7 0.00 0.00 0.00 60 1013.8
20260905062033 21 197 8.0 17.7 0.00 0.00 0.00 60 1014.0
20260905061735 21 215 8.0 17.7 0.00 0.00 0.00 61 1013.7
20260905061613 21 186 6.4 14.5 0.00 0.00 0.00 60 1013.9
20260905061233 21 209 6.4 14.5 0.00 0.00 0.00 61 1013.6
20260905061030 21 214 6.4 14.5 0.00 0.00 0.00 61 1013.9
20260905060732 21 177 6.4 12.9 0.00 0.00 0.00 61 1013.6
20260905060528 21 205 4.8 12.9 0.00 0.00 0.00 61 1013.9
20260905060234 21 176 6.4 12.9 0.00 0.00 0.00 62 1013.7
20260905060101 20 196 4.8 14.5 0.00 0.00 0.00 61 1013.9
20260905055729 21 194 6.4 12.9 0.00 0.00 0.00 62 1013.7
20260905055530 20 196 4.8 14.5 0.00 0.00 0.00 62 1013.9
20260905055226 20 152 6.4 12.9 0.00 0.00 0.00 63 1013.6
20260905055030 20 180 6.4 12.9 0.00 0.00 0.00 62 1013.8
20260905054724 20 210 6.4 11.3 0.00 0.00 0.00 63 1013.6
20260905054551 20 163 4.8 11.3 0.00 0.00 0.00 63 1013.8
20260905054028 20 187 4.8 12.9 0.00 0.00 0.00 63 1013.8
20260905053526 20 166 4.8 12.9 0.00 0.00 0.00 64 1013.8
20260905053220 20 198 6.4 12.9 0.00 0.00 0.00 65 1013.5
20260905053056 20 196 4.8 11.3 0.00 0.00 0.00 64 1013.7
20260905052718 20 162 4.8 11.3 0.00 0.00 0.00 65 1013.4
20260905052530 20 188 6.4 11.3 0.00 0.00 0.00 65 1013.7
20260905052217 20 172 4.8 11.3 0.00 0.00 0.00 65 1013.4
20260905052030 19 174 4.8 11.3 0.00 0.00 0.00 65 1013.7
20260905051715 20 152 4.8 11.3 0.00 0.00 0.00 65 1013.4
20260905051554 19 165 4.8 11.3 0.00 0.00 0.00 65 1013.6
20260905051214 19 163 4.8 11.3 0.00 0.00 0.00 66 1013.4
20260905051029 19 175 4.8 9.7 0.00 0.00 0.00 66 1013.7
20260905050712 19 173 4.8 8.0 0.00 0.00 0.00 67 1013.4
20260905050527 18 184 3.2 9.7 0.00 0.00 0.00 66 1013.7
20260905050054 18 176 1.6 6.4 0.00 0.00 0.00 67 1013.6
20260905045533 18 157 1.6 6.4 0.00 0.00 0.00 68 1013.7
20260905045207 18 153 1.6 6.4 0.00 0.00 0.00 68 1013.5
20260905045029 18 170 1.6 6.4 0.00 0.00 0.00 68 1013.7
20260905044705 18 147 1.6 4.8 0.00 0.00 0.00 69 1013.4
20260905044553 18 0 1.6 3.2 0.00 0.00 0.00 68 1013.7
20260905044204 18 188 0.0 3.2 0.00 0.00 0.00 69 1013.5
20260905044027 18 0 0.0 4.8 0.00 0.00 0.00 69 1013.6
20260905043530 17 0 1.6 4.8 0.00 0.00 0.00 68 1013.8
20260905043205 18 215 3.2 4.8 0.00 0.00 0.00 69 1013.5
20260905043056 17 192 1.6 3.2 0.00 0.00 0.00 70 1013.8
20260905042700 17 180 1.6 3.2 0.00 0.00 0.00 70 1013.4
20260905042527 17 180 1.6 4.8 0.00 0.00 0.00 70 1013.7
20260905042153 17 198 1.6 4.8 0.00 0.00 0.00 71 1013.4
20260905042030 17 202 0.0 4.8 0.00 0.00 0.00 70 1013.6
20260905041600 17 166 0.0 3.2 0.00 0.00 0.00 70 1013.5
20260905041149 17 163 0.0 6.4 0.00 0.00 0.00 70 1013.1
20260905041033 17 0 0.0 6.4 0.00 0.00 0.00 70 1013.5
20260905040651 17 163 1.6 6.4 0.00 0.00 0.00 70 1013.3
20260905040529 17 163 1.6 6.4 0.00 0.00 0.00 70 1013.5
20260905040136 17 165 3.2 3.2 0.00 0.00 0.00 71 1013.1
20260905040051 17 164 1.6 4.8 0.00 0.00 0.00 70 1013.5
20260905035634 17 169 1.6 3.2 0.00 0.00 0.00 71 1013.2
20260905035530 17 169 1.6 3.2 0.00 0.00 0.00 70 1013.5
20260905035132 17 169 1.6 3.2 0.00 0.00 0.00 71 1013.2
20260905035030 17 169 1.6 3.2 0.00 0.00 0.00 70 1013.4
20260905034609 17 169 1.6 3.2 0.00 0.00 0.00 70 1013.5
20260905034125 17 165 1.6 3.2 0.00 0.00 0.00 71 1013.1
20260905034029 17 165 0.0 3.2 0.00 0.00 0.00 70 1013.4
20260905033623 17 165 1.6 3.2 0.00 0.00 0.00 71 1013.2
20260905033529 17 0 0.0 3.2 0.00 0.00 0.00 71 1013.4
20260905033057 17 165 0.0 3.2 0.00 0.00 0.00 70 1013.5
20260905032620 17 165 1.6 3.2 0.00 0.00 0.00 70 1013.1
20260905032529 17 165 0.0 3.2 0.00 0.00 0.00 70 1013.4
20260905032118 17 165 1.6 3.2 0.00 0.00 0.00 70 1013.1
20260905032029 17 165 0.0 3.2 0.00 0.00 0.00 69 1013.4
20260905031617 17 165 1.6 3.2 0.00 0.00 0.00 69 1013.1
20260905031554 17 0 1.6 3.2 0.00 0.00 0.00 69 1013.4
20260905031030 17 0 0.0 3.2 0.00 0.00 0.00 68 1013.5
20260905030614 18 165 1.6 6.4 0.00 0.00 0.00 69 1013.1
20260905030529 17 165 1.6 6.4 0.00 0.00 0.00 68 1013.3
20260905030047 17 165 1.6 6.4 0.00 0.00 0.00 67 1013.4
20260905025610 18 235 1.6 3.2 0.00 0.00 0.00 67 1013.1
20260905025529 18 235 1.6 3.2 0.00 0.00 0.00 67 1013.5
20260905025108 18 235 1.6 3.2 0.00 0.00 0.00 67 1013.1
20260905025030 18 235 0.0 3.2 0.00 0.00 0.00 66 1013.5
20260905024611 18 235 0.0 3.2 0.00 0.00 0.00 67 1013.1
20260905024547 18 235 0.0 4.8 0.00 0.00 0.00 66 1013.4
20260905024105 18 235 1.6 4.8 0.00 0.00 0.00 66 1013.1
20260905024029 18 235 0.0 4.8 0.00 0.00 0.00 65 1013.4
20260905023604 18 235 3.2 4.8 0.00 0.00 0.00 66 1013.1
20260905023529 18 235 1.6 4.8 0.00 0.00 0.00 65 1013.4
20260905023101 18 280 0.0 4.8 0.00 0.00 0.00 65 1013.1
20260905022601 19 196 1.6 6.4 0.00 0.00 0.00 65 1013.1
20260905022527 18 0 0.0 6.4 0.00 0.00 0.00 64 1013.4
20260905022059 19 209 1.6 6.4 0.00 0.00 0.00 64 1013.0
20260905022030 18 209 1.6 6.4 0.00 0.00 0.00 64 1013.3
20260905021556 19 0 1.6 4.8 0.00 0.00 0.00 64 1013.3
20260905021055 19 197 3.2 4.8 0.00 0.00 0.00 63 1013.0
20260905021030 19 197 1.6 4.8 0.00 0.00 0.00 63 1013.3
20260905020549 20 203 1.6 4.8 0.00 0.00 0.00 63 1013.0
20260905020529 19 0 1.6 6.4 0.00 0.00 0.00 62 1013.3
20260905020049 20 194 1.6 6.4 0.00 0.00 0.00 62 1013.3
20260905020047 20 198 1.6 6.4 0.00 0.00 0.00 62 1013.0
20260905015545 20 205 3.2 8.0 0.00 0.00 0.00 62 1013.0
20260905015531 20 205 1.6 8.0 0.00 0.00 0.00 61 1013.3
20260905015043 20 195 4.8 8.0 0.00 0.00 0.00 62 1013.0
20260905015030 20 195 3.2 8.0 0.00 0.00 0.00 62 1013.3
20260905014548 20 185 1.6 9.7 0.00 0.00 0.00 61 1013.2
20260905014035 20 178 3.2 11.3 0.00 0.00 0.00 62 1012.9
20260905014030 20 176 3.2 11.3 0.00 0.00 0.00 62 1013.1
20260905013534 20 164 4.8 11.3 0.00 0.00 0.00 62 1012.9
20260905013531 20 161 3.2 11.3 0.00 0.00 0.00 62 1013.2
20260905013056 20 171 3.2 11.3 0.00 0.00 0.00 62 1013.2
20260905013033 20 171 3.2 11.3 0.00 0.00 0.00 62 1012.9
20260905012531 20 179 4.8 12.9 0.00 0.00 0.00 63 1012.9
20260905012030 20 192 3.2 12.9 0.00 0.00 0.00 62 1013.1
20260905011556 20 138 4.8 11.3 0.00 0.00 0.00 62 1013.2
20260905011528 20 171 4.8 11.3 0.00 0.00 0.00 62 1012.9
20260905011030 20 165 3.2 11.3 0.00 0.00 0.00 62 1013.2
20260905011026 20 165 4.8 11.3 0.00 0.00 0.00 62 1012.9